Waarnemingen

Advertentie
Mijn weer
Vitoria, Spanje (8080): temperatuur & dauwpunt: 06.07.2020 15:00:00 - 12.07.2020 15:00:00 (CEST)Vitoria, Spanje (8080): windsnelheid: 06.07.2020 15:00:00 - 12.07.2020 15:00:00 (CEST)Vitoria, Spanje (8080): windrichting: 06.07.2020 15:00:00 - 12.07.2020 15:00:00 (CEST)Vitoria, Spanje (8080): luchtdruk: 06.07.2020 15:00:00 - 12.07.2020 15:00:00 (CEST)Vitoria, Spanje (8080): zicht: 06.07.2020 15:00:00 - 12.07.2020 15:00:00 (CEST)
Datum & Tijd tt [°C] td [°C] ff [km/u] ff [kn] dd ppp [hPa] vv [km]
12.07.2020 15:00:00 - - - - - - -
12.07.2020 14:00:00 26,0 17,7 13 7 OZO 1016,5 25
12.07.2020 13:00:00 22,5 17,3 8 4 ONO 1018,6 -
12.07.2020 12:00:00 20,4 17,2 9 5 OZO 1019,8 -
12.07.2020 11:00:00 18,4 16,5 8 4 WNW 1020,7 12
12.07.2020 10:00:00 16,0 15,5 8 4 NNW 1020,3 -
12.07.2020 09:00:00 15,6 14,8 4 2 N 1020,9 15
12.07.2020 08:00:00 15,3 14,4 16 9 O 1020,5 8
12.07.2020 07:00:00 15,1 13,8 11 6 W 1022,1 -
12.07.2020 06:00:00 15,1 13,1 8 4 N 1019,9 -
12.07.2020 05:00:00 13,5 12,8 2 1 W 1019,3 10
12.07.2020 04:00:00 13,9 12,9 4 2 NO 1019,0 -
12.07.2020 03:00:00 14,6 13,5 5 3 Z 1019,6 -
12.07.2020 02:00:00 14,6 12,6 4 2 NNW 1020,1 10
12.07.2020 01:00:00 16,1 13,3 5 3 NNO 1020,7 -
12.07.2020 00:00:00 16,9 14,3 16 9 N 1020,6 -
11.07.2020 23:00:00 17,4 14,5 18 10 NNO 1020,4 12
11.07.2020 22:00:00 18,2 14,5 18 10 NNO 1019,7 -
11.07.2020 21:00:00 19,9 14,5 22 12 NNO 1019,2 -
11.07.2020 20:00:00 21,7 14,2 22 12 N 1018,6 25
11.07.2020 19:00:00 22,7 14,0 22 12 NNO 1018,2 -
11.07.2020 18:00:00 23,5 14,3 22 12 N 1018,4 -
11.07.2020 17:00:00 23,5 14,5 21 11 N 1018,8 30
11.07.2020 16:00:00 23,5 13,9 24 13 N 1019,0 -
11.07.2020 15:00:00 22,9 13,4 22 12 NNO 1019,7 25
11.07.2020 14:00:00 22,0 13,6 26 14 NNO 1020,4 25
11.07.2020 13:00:00 21,6 13,5 18 10 NNO 1020,8 -
11.07.2020 12:00:00 19,5 13,3 18 10 NNO 1021,3 -
11.07.2020 11:00:00 18,6 12,3 18 10 NNO 1021,7 20
11.07.2020 10:00:00 17,0 12,7 11 6 NO 1022,1 -
11.07.2020 09:00:00 16,0 13,0 5 3 N 1022,2 15
11.07.2020 08:00:00 15,2 12,5 9 5 NNO 1022,3 15
11.07.2020 07:00:00 14,6 12,7 4 2 O 1022,2 -
11.07.2020 06:00:00 14,8 12,3 5 3 NNW 1022,0 -
11.07.2020 05:00:00 14,7 12,0 0 0 N 1022,1 2,0
11.07.2020 04:00:00 14,9 12,7 8 4 NNO 1022,1 -
11.07.2020 03:00:00 15,0 12,7 8 4 N 1022,5 -
11.07.2020 02:00:00 15,0 12,7 4 2 N 1022,7 20
11.07.2020 01:00:00 15,6 12,7 11 6 N 1022,6 -
11.07.2020 00:00:00 15,8 13,3 16 9 N 1022,3 -
10.07.2020 23:00:00 15,9 13,9 13 7 NNO 1022,0 20
10.07.2020 22:00:00 16,2 14,2 13 7 NNO 1021,2 -
10.07.2020 21:00:00 16,8 14,6 13 7 NNO 1020,7 -
10.07.2020 20:00:00 17,3 14,4 15 8 NNO 1020,5 20
10.07.2020 19:00:00 17,7 14,9 21 11 NNO 1020,0 -
10.07.2020 18:00:00 18,3 14,4 24 13 NNO 1019,8 -
10.07.2020 17:00:00 19,2 14,0 22 12 N 1019,3 20
10.07.2020 16:00:00 19,8 14,6 22 12 NNO 1019,2 -
10.07.2020 15:00:00 20,3 15,6 16 9 NNO 1019,2 20
10.07.2020 14:00:00 19,5 15,2 21 11 N 1019,7 20
10.07.2020 13:00:00 20,0 15,4 26 14 NO 1019,6 -
10.07.2020 12:00:00 19,1 15,4 21 11 NNO 1019,6 -
10.07.2020 11:00:00 19,7 15,0 18 10 NNO 1019,3 20
10.07.2020 10:00:00 18,7 14,2 9 5 N 1019,6 -
10.07.2020 09:00:00 17,2 14,4 9 5 N 1019,9 10
10.07.2020 08:00:00 15,6 14,7 0 0 N 1020,1 5
10.07.2020 07:00:00 14,0 13,4 4 2 NO 1020,0 -
10.07.2020 06:00:00 13,7 12,9 5 3 NO 1020,0 -
10.07.2020 05:00:00 13,5 12,7 0 0 N 1020,2 15
10.07.2020 04:00:00 14,2 13,1 4 2 O 1020,0 -
10.07.2020 03:00:00 15,3 13,7 5 3 O 1020,1 -
10.07.2020 02:00:00 17,2 14,7 8 4 WNW 1020,4 15
10.07.2020 01:00:00 18,1 15,0 9 5 N 1020,5 -
10.07.2020 00:00:00 18,4 15,3 13 7 NNW 1019,9 -
09.07.2020 23:00:00 18,6 15,5 11 6 N 1019,2 15
09.07.2020 22:00:00 19,2 16,2 11 6 N 1018,5 -
09.07.2020 21:00:00 21,2 16,6 16 9 NNO 1017,4 -
09.07.2020 20:00:00 23,1 17,5 22 12 N 1016,8 20
09.07.2020 19:00:00 23,6 17,9 24 13 NNO 1016,4 -
09.07.2020 18:00:00 26,1 18,6 26 14 NNO 1015,6 -
09.07.2020 17:00:00 27,3 18,7 24 13 NNO 1015,2 20
09.07.2020 16:00:00 28,0 18,6 24 13 NO 1015,5 -
09.07.2020 15:00:00 28,2 18,8 16 9 N 1015,8 28
09.07.2020 14:00:00 27,6 17,2 13 7 NO 1016,2 22
09.07.2020 13:00:00 26,2 16,8 15 8 NNO 1016,7 -
09.07.2020 12:00:00 24,4 16,1 11 6 N 1017,6 -
09.07.2020 11:00:00 23,3 16,3 11 6 O 1017,5 22
09.07.2020 10:00:00 20,3 15,0 8 4 O 1018,2 -
09.07.2020 09:00:00 17,7 14,4 5 3 O 1018,4 20
09.07.2020 08:00:00 15,2 14,1 5 3 NNW 1019,1 20
09.07.2020 07:00:00 12,8 12,0 4 2 ONO 1019,0 -
09.07.2020 06:00:00 13,6 12,5 0 0 N 1018,2 -
09.07.2020 05:00:00 14,0 13,0 8 4 NO 1018,1 18
09.07.2020 04:00:00 15,0 13,2 5 3 NO 1018,2 -
09.07.2020 03:00:00 15,6 13,9 13 7 ONO 1018,2 -
09.07.2020 02:00:00 16,7 14,2 8 4 NNO 1019,0 17
09.07.2020 01:00:00 17,3 14,6 2 1 ZW 1018,9 -
09.07.2020 00:00:00 19,1 14,5 8 4 W 1018,3 -
08.07.2020 23:00:00 19,8 14,9 11 6 NO 1017,0 17
08.07.2020 22:00:00 21,1 15,1 8 4 WNW 1015,9 -
08.07.2020 21:00:00 23,4 16,2 15 8 NW 1015,1 -
08.07.2020 20:00:00 25,3 17,7 21 11 N 1014,0 20
08.07.2020 19:00:00 25,8 17,8 21 11 N 1013,4 -
08.07.2020 18:00:00 28,3 18,5 22 12 NNO 1012,8 -
08.07.2020 17:00:00 28,7 18,0 22 12 NNO 1013,1 20
08.07.2020 16:00:00 28,7 17,4 18 10 NNO 1013,4 -
08.07.2020 15:00:00 28,4 17,3 13 7 N 1014,1 20
08.07.2020 14:00:00 26,9 15,2 11 6 NNO 1014,9 20
08.07.2020 13:00:00 25,7 14,8 13 7 NNO 1015,7 -
08.07.2020 12:00:00 23,9 14,2 8 4 N 1016,2 -
08.07.2020 11:00:00 21,1 13,9 5 3 OZO 1017,0 20
08.07.2020 10:00:00 18,1 13,6 4 2 N 1017,8 -
08.07.2020 09:00:00 15,1 13,1 4 2 ONO 1018,6 15
08.07.2020 08:00:00 12,0 11,7 2 1 O 1019,1 6
08.07.2020 07:00:00 9,4 8,9 2 1 ONO 1019,3 -
08.07.2020 06:00:00 9,8 9,5 5 3 NO 1019,2 -
08.07.2020 05:00:00 10,0 9,4 4 2 NO 1019,5 10
08.07.2020 04:00:00 11,2 10,4 0 0 N 1019,4 -
08.07.2020 03:00:00 12,6 11,5 4 2 ZZO 1019,6 -
08.07.2020 02:00:00 13,9 12,9 9 5 N 1019,7 12
08.07.2020 01:00:00 14,6 12,8 4 2 ONO 1019,6 -
08.07.2020 00:00:00 15,8 13,7 11 6 N 1019,6 -
07.07.2020 23:00:00 16,6 14,1 11 6 N 1019,2 12
07.07.2020 22:00:00 18,0 14,2 11 6 N 1018,1 -
07.07.2020 21:00:00 20,3 14,5 18 10 NNO 1017,4 -
07.07.2020 20:00:00 22,3 14,7 22 12 NNO 1016,7 30
07.07.2020 19:00:00 23,7 14,7 24 13 NNO 1016,3 -
07.07.2020 18:00:00 24,8 14,8 21 11 NO 1016,3 -
07.07.2020 17:00:00 24,9 13,8 16 9 NO 1016,6 30
07.07.2020 16:00:00 24,6 13,8 16 9 NO 1017,2 -
07.07.2020 15:00:00 23,2 12,5 16 9 NNO 1017,9 30
07.07.2020 14:00:00 22,0 12,3 18 10 N 1018,6 30
07.07.2020 13:00:00 20,5 12,5 16 9 N 1019,6 -
07.07.2020 12:00:00 18,8 12,0 15 8 NNO 1020,3 -
07.07.2020 11:00:00 17,3 11,0 13 7 NNO 1020,9 28
07.07.2020 10:00:00 16,0 10,7 16 9 NNO 1021,4 -
07.07.2020 09:00:00 15,0 9,4 11 6 N 1021,8 25
07.07.2020 08:00:00 13,4 9,2 4 2 N 1022,1 25
07.07.2020 07:00:00 12,2 8,8 8 4 N 1022,4 -
07.07.2020 06:00:00 12,2 9,4 4 2 NNO 1022,7 -
07.07.2020 05:00:00 12,5 9,0 4 2 NNW 1023,0 20
07.07.2020 04:00:00 12,5 8,8 9 5 N 1023,5 -
07.07.2020 03:00:00 12,6 9,4 9 5 N 1024,0 -
07.07.2020 02:00:00 12,3 10,0 8 4 N 1024,4 14
07.07.2020 01:00:00 11,0 10,1 8 4 NO 1025,1 -
07.07.2020 00:00:00 11,4 10,5 9 5 N 1025,4 -
06.07.2020 23:00:00 12,1 10,5 8 4 N 1025,3 20
06.07.2020 22:00:00 14,0 11,5 15 8 NO 1024,4 -
06.07.2020 21:00:00 16,3 12,6 18 10 NNO 1023,8 -
06.07.2020 20:00:00 17,6 13,7 21 11 NNO 1023,6 10
06.07.2020 19:00:00 18,5 14,5 21 11 NO 1023,5 -
06.07.2020 18:00:00 17,9 14,5 22 12 NO 1024,0 -
06.07.2020 17:00:00 19,0 15,0 22 12 NNO 1023,7 16
06.07.2020 16:00:00 18,9 15,0 22 12 NO 1023,8 -
06.07.2020 15:00:00 20,1 15,2 21 11 NNO 1023,4 15

tt = temperatuur
td = dauwpunt
ff = windsnelheid
dd = windrichting
ppp = luchtdruk
vv = zicht

Weerstations in de omgeving